Location: Grand Rapids
(42.9630°N, 85.6680°W)
Time: 02:55:58
(UTC-04:00)

S-56A Canister/Altair - Pass Details

Date: 03 June 2024
Orbit: 637 x 2489 km, 38.9° (Epoch: 22 June)

Event Time Altitude Azimuth Distance (km) Brightness Sun altitude
Rises 08:26:12 0° 278° (W) 6,106 11.6 23.1°
Reaches altitude 10° 08:30:27 10° 276° (W) 4,986 11.2 23.9°
Maximum altitude 08:43:57 61° 201° (SSW) 2,116 10.0 26.3°
Drops below altitude 10° 08:53:24 10° 124° (ESE) 3,587 11.8 28.0°
Sets 08:55:59 0° 120° (ESE) 4,341 12.2 28.5°
